Tracking 23732 objects as of 28-Sep-2021
HD Live streaming from Space Station
objects crossing your sky now

EUTELSAT 1-F2 (ECS 2)

Track EUTELSAT 1-F2 (ECS 2) now!
EUTELSAT 1-F2 (ECS 2) is classified as:


NORAD ID: 15158
Int'l Code: 1984-081A
Perigee: 36,165.2 km
Apogee: 36,260.8 km
Inclination: 14.4 °
Period: 1,457.6 minutes
Semi major axis: 42583 km
RCS: 5.0119 m2 (large)
Launch date: August 4, 1984
Source: European Telecommunications Satellite Organization (EUTE)
Launch site: FRENCH GUIANA (FRGUI)
aabbcc
Your satellite tracking list
Your tracking list is empty




NASA's NSSDC Master Catalog

Two Line Element Set (TLE):
1 15158U 84081A   21270.33594781  .00000013  00000-0  00000-0 0  9997
2 15158  14.4276 345.7072 0011219 169.8005 226.6970  0.98794612100231
Source of the keplerian elements: AFSPC